Grenoble

Airport
ICAO code: 
LFLS
Summary
ICAO Region: 
EUR
Territory: 
Location: 
Grenoble, Rhone-Alpes,
Coordinates: 
Aerial View: 
45° 21' 46.512" N, 5° 19' 42.644" E
Metar
Observation
LFLS 060600Z AUTO VRB02KT 9999 FEW014 SCT030 BKN054 00/00 Q1013 TEMPO 4000 BR BKN008
Station
Grenoble / St. Geoirs
Date/Time
2021-12-06 06:00:00
Wind speed
02 kts
Lowest cloud amount
few clouds
Temperature
0°C
Dew point
0°C
Humidity
100%
QNH
1013 hPa
Weather condition
n/a

Description

International airport serving resort of Grenoble.

Climatology

Humid “subtropical” climate (Köppen climate classification Cfa) - characterized by hot, humid summers and cool winters. Significant amounts of precipitation occur in all seasons in most areas. Winter rainfall (and sometimes snowfall) is associated with large storms that the westerlies steer from west to east. Most summer rainfall occurs during thunderstorms.

Runways

Designator Length Width Surface Rops
9/27 3050 45 ASP Yes/Yes
Airport map: 
Aerial View: 

Accidents and Serious Incidents at or in the vicinity of LFLS

SKYbrary Partners:

Safety knowledge contributed by: